Location: Saint Peter Port
(49.4500°N, 2.5330°W)
Time: 02:35:57
(UTC+01:00)

Cosmos 2242 Rocket - Visible Passes

Search period start: 22 October 2014 00:00
Search period end: 31 October 2014 23:00
Orbit: 621 x 652 km, 82.5° (Epoch: 21 October)

Date Brightness Start Highest point End Pass type
(mag) Time Alt. Az. Time Alt. Az. Time Alt. Az.
22 Oct 5.6 04:12:06 10° N 04:19:25 13° SE 04:19:59 10° SE visible
22 Oct 4.9 05:50:12 10° NNW 05:57:24 16° SSW 05:58:29 10° SSW visible
23 Oct 6.2 04:34:38 10° N 04:35:05 13° N 04:35:05 13° N visible
23 Oct 5.5 18:51:26 10° SW 18:55:37 35° WNW 18:59:50 10° N visible
24 Oct 6.4 19:15:25 10° WSW 19:18:45 20° WNW 19:22:08 10° NNW visible
25 Oct 6.8 19:40:43 10° WNW 19:42:04 11° WNW 19:43:25 10° NW visible
27 Oct 6.2 17:45:26 10° WSW 17:49:02 22° WNW 17:52:39 10° NNW visible
28 Oct 6.6 18:10:15 10° W 18:12:17 13° WNW 18:14:20 10° NW visible
31 Oct 6.5 17:39:59 10° W 17:42:31 15° WNW 17:45:03 10° NNW visible
